Location: Newark
(51.7378°N, 19.8125°E)
Time: 19:54:08
(UTC+00:00)

Envisat - Pass Details

Date: 10 December 2019
Orbit: 764 x 766 km, 98.1° (Epoch: 28 January)

Event Time Altitude Azimuth Distance (km) Brightness Sun altitude
Rises 15:57:32 0° 151° (SSE) 3,224 6.2 -12.5°
Reaches altitude 10° 15:59:51 10° 148° (SSE) 2,302 5.4 -12.9°
Maximum altitude 16:04:50 59° 70° (ENE) 888 3.0 -13.6°
Drops below altitude 10° 16:09:50 10° 352° (N) 2,318 5.4 -14.3°
Sets 16:12:11 0° 349° (NNW) 3,249 6.2 -14.6°
